Location: Kirkcaldy
(50.3333°N, 113.2333°W)
Time: 14:55:02
(UTC+00:00)

Oscar 11 - Pass Details

Date: 14 December 2023
Orbit: 603 x 617 km, 97.7° (Epoch: 02 March)

Event Time Altitude Azimuth Distance (km) Brightness Sun altitude
Rises 00:09:22 0° 220° (SW) 2,856 12.0 -6.2°
Reaches altitude 10° 00:13:05 10° 254° (WSW) 1,964 11.2 -6.7°
Maximum altitude 00:14:30 11° 274° (W) 1,873 10.5 -6.9°
Drops below altitude 10° 00:15:56 10° 294° (WNW) 1,973 10.2 -7.1°
Sets 00:19:42 0° 328° (NNW) 2,890 10.6 -7.6°
